User: anonymous   Login
Location: St. Malo Provincial Park
(49.3214°N, 96.9305°W)
Time: 04:36:26
(UTC-05:00)
Language:

Iridium 6 - Orbit

View from above orbital plane
View from above orbital plane
View from above satellite
View from above satellite

Ground track
Ground track

The orbit data is extracted from the following two-line orbital elements,

1 24794U 97020C   16149.45045789  .00000120  00000-0  35736-4 0  9998
2 24794  86.3954 119.7480 0002312  87.1834 272.9626 14.34217818998056
Epoch (UTC): 28 May 2016 10:48:39
Eccentricity: 0.0002312
inclination: 86.3954°
perigee height: 776 km
apogee height: 779 km
right ascension of ascending node: 119.7480°
argument of perigee: 87.1834°
revolutions per day: 14.34217818
mean anomaly at epoch: 272.9626°
orbit number at epoch: 99805

The dashed part of the orbit path shows where the satellite is in the earth's shadow,  

DLR